GW0552 Weather Reports


time (UTC)temp
C
wind
direction
speed
KPH
gust
KPH
rain 1hr
cm
rain 24hr
cm
rain mn
cm
humidity
%
barometer
mb
20260509154428 17 123 4.8 8.0 0.00 0.00 0.00 69 1006.2
20260509153926 17 99 4.8 8.0 0.00 0.00 0.00 69 1006.5
20260509153422 17 130 6.4 8.0 0.00 0.00 0.00 69 1006.2
20260509152920 17 148 3.2 3.2 0.00 0.00 0.00 69 1006.3
20260509152415 17 145 4.8 4.8 0.00 0.00 0.00 71 1006.3
20260509151912 17 118 4.8 4.8 0.00 0.00 0.00 70 1006.0
20260509151408 16 134 6.4 8.0 0.00 0.00 0.00 69 1006.2
20260509150907 16 132 3.2 3.2 0.00 0.00 0.00 70 1006.3
20260509150404 16 126 3.2 3.2 0.00 0.00 0.00 70 1006.3
20260509145902 16 144 4.8 4.8 0.00 0.00 0.00 71 1006.1
20260509145401 16 158 4.8 4.8 0.00 0.00 0.00 70 1006.0
20260509144858 16 136 3.2 4.8 0.00 0.00 0.00 70 1006.2
20260509144355 16 118 4.8 4.8 0.00 0.00 0.00 70 1006.3
20260509143852 16 137 1.6 3.2 0.00 0.00 0.00 73 1006.3
20260509143349 16 105 4.8 4.8 0.00 0.00 0.00 71 1006.2
20260509142845 16 124 1.6 1.6 0.00 0.00 0.00 73 1006.0
20260509142342 15 137 1.6 1.6 0.00 0.00 0.00 74 1006.1
20260509141837 15 140 0.0 0.0 0.00 0.00 0.00 77 1006.2
20260509141335 15 126 0.0 0.0 0.00 0.00 0.00 75 1006.4
20260509140831 15 132 0.0 0.0 0.00 0.00 0.00 76 1006.4
20260509140328 15 132 0.0 0.0 0.00 0.00 0.00 76 1006.2
20260509135826 15 121 1.6 3.2 0.00 0.00 0.00 75 1006.0
20260509135323 15 125 0.0 0.0 0.00 0.00 0.00 74 1006.1
20260509134821 15 125 1.6 1.6 0.00 0.00 0.00 71 1006.3
20260509134318 15 120 1.6 1.6 0.00 0.00 0.00 70 1006.2
20260509133815 15 114 3.2 3.2 0.00 0.00 0.00 71 1006.3
20260509133311 15 142 3.2 3.2 0.00 0.00 0.00 71 1006.4
20260509132810 15 140 0.0 0.0 0.00 0.00 0.00 77 1006.4
20260509132308 15 128 0.0 0.0 0.00 0.00 0.00 75 1006.1
20260509131804 15 129 1.6 1.6 0.00 0.00 0.00 76 1006.1
20260509131301 15 131 1.6 1.6 0.00 0.00 0.00 74 1006.1
20260509130757 15 132 0.0 1.6 0.00 0.00 0.00 77 1006.0
20260509130253 15 131 1.6 1.6 0.00 0.00 0.00 77 1006.0
20260509125750 15 130 0.0 0.0 0.00 0.00 0.00 85 1005.7
20260509125247 14 130 0.0 1.6 0.00 0.00 0.00 82 1006.0
20260509124743 13 121 3.2 3.2 0.00 0.00 0.00 83 1005.7
20260509124240 13 125 0.0 0.0 0.00 0.00 0.00 89 1005.7
20260509123738 13 132 0.0 0.0 0.00 0.00 0.00 89 1005.8
20260509123235 12 131 0.0 0.0 0.00 0.00 0.00 90 1005.9
20260509122731 12 128 0.0 1.6 0.00 0.00 0.00 90 1006.2
20260509122228 12 137 3.2 3.2 0.00 0.00 0.00 91 1006.2
20260509121725 12 132 0.0 0.0 0.00 0.00 0.00 91 1006.4
20260509121222 11 122 1.6 3.2 0.00 0.00 0.00 91 1006.5
20260509120720 11 131 0.0 1.6 0.00 0.00 0.00 92 1006.3
20260509120218 11 135 1.6 1.6 0.00 0.00 0.00 92 1006.3
20260509115715 11 131 0.0 0.0 0.00 0.00 0.00 93 1006.1
20260509115212 11 128 0.0 0.0 0.00 0.00 0.00 93 1006.3
20260509114711 11 128 0.0 0.0 0.00 0.00 0.00 94 1006.3
20260509114209 11 132 0.0 0.0 0.00 0.00 0.00 94 1006.0
20260509113707 11 135 0.0 0.0 0.00 0.00 0.00 94 1005.9
20260509113204 10 148 1.6 3.2 0.00 0.00 0.00 94 1006.1
20260509112701 10 133 3.2 3.2 0.00 0.00 0.00 94 1006.1
20260509112158 10 134 0.0 0.0 0.00 0.00 0.00 94 1006.0
20260509111655 10 130 0.0 0.0 0.00 0.00 0.00 94 1005.9
20260509111151 10 129 0.0 0.0 0.00 0.00 0.00 94 1005.9
20260509110649 10 129 0.0 0.0 0.00 0.00 0.00 94 1005.9
20260509110146 10 132 0.0 0.0 0.00 0.00 0.00 94 1005.9
20260509105644 10 133 0.0 0.0 0.00 0.00 0.00 94 1005.7
20260509105141 10 128 0.0 0.0 0.00 0.00 0.00 94 1006.0
20260509104638 10 126 0.0 0.0 0.00 0.00 0.00 94 1005.8
20260509104135 10 133 0.0 0.0 0.00 0.00 0.00 94 1005.9
20260509103633 10 131 0.0 0.0 0.00 0.00 0.00 93 1005.8
20260509103130 10 130 0.0 0.0 0.00 0.00 0.00 93 1005.5
20260509102628 10 130 0.0 0.0 0.00 0.00 0.00 94 1005.4
20260509102125 10 130 0.0 0.0 0.00 0.00 0.00 94 1005.6
20260509101621 10 131 0.0 0.0 0.00 0.00 0.00 94 1005.6
20260509101118 10 131 0.0 0.0 0.00 0.00 0.00 93 1005.5
20260509100615 10 130 0.0 0.0 0.00 0.00 0.00 93 1005.6
20260509100112 10 126 0.0 0.0 0.00 0.00 0.00 93 1005.6
20260509095608 10 136 0.0 0.0 0.00 0.00 0.00 93 1005.7
20260509095106 10 134 0.0 0.0 0.00 0.00 0.00 93 1005.4
20260509094602 10 134 0.0 0.0 0.00 0.00 0.00 92 1005.7
20260509094059 10 134 0.0 0.0 0.00 0.00 0.00 93 1005.8
20260509093558 10 134 0.0 0.0 0.00 0.00 0.00 93 1005.8
20260509093055 10 133 0.0 0.0 0.00 0.00 0.00 93 1005.9
20260509092552 10 134 0.0 0.0 0.00 0.00 0.00 93 1005.7
20260509092051 10 134 0.0 0.0 0.00 0.00 0.00 92 1005.7
20260509091548 10 134 0.0 0.0 0.00 0.00 0.00 92 1006.0
20260509091044 10 134 0.0 0.0 0.00 0.00 0.00 92 1005.9
20260509090542 10 134 0.0 0.0 0.00 0.00 0.00 92 1005.9
20260509090040 10 134 0.0 0.0 0.00 0.00 0.00 92 1006.1
20260509085537 10 134 0.0 0.0 0.00 0.00 0.00 92 1006.0
20260509085032 10 134 0.0 0.0 0.00 0.00 0.00 91 1005.9
20260509084530 10 134 0.0 0.0 0.00 0.00 0.00 92 1005.7
20260509084027 10 134 0.0 0.0 0.00 0.00 0.00 92 1005.8
20260509083525 10 134 0.0 0.0 0.00 0.00 0.00 92 1005.7
20260509083021 10 134 0.0 0.0 0.00 0.00 0.00 91 1005.8
20260509082518 10 134 0.0 0.0 0.00 0.00 0.00 91 1006.1
20260509082015 10 134 0.0 0.0 0.00 0.00 0.00 91 1006.0
20260509081513 10 134 0.0 0.0 0.00 0.00 0.00 91 1006.0
20260509081009 10 134 0.0 0.0 0.00 0.00 0.00 91 1006.0
20260509080507 10 134 0.0 0.0 0.00 0.00 0.00 91 1006.1
20260509080005 10 134 0.0 0.0 0.00 0.00 0.00 91 1006.0
20260509075502 10 134 0.0 0.0 0.00 0.00 0.00 90 1006.1
20260509075000 10 134 0.0 0.0 0.00 0.00 0.00 91 1006.2
20260509074457 10 134 0.0 0.0 0.00 0.00 0.00 91 1006.2
20260509073953 10 134 0.0 0.0 0.00 0.00 0.00 91 1006.2
20260509073450 10 134 0.0 0.0 0.00 0.00 0.00 90 1006.3
20260509072946 10 134 0.0 0.0 0.00 0.00 0.00 90 1006.1
20260509072443 10 134 0.0 0.0 0.00 0.00 0.00 90 1006.2
20260509071940 10 134 0.0 0.0 0.00 0.00 0.00 90 1006.2
20260509071436 10 134 0.0 0.0 0.00 0.00 0.00 90 1006.2
20260509070934 10 134 0.0 0.0 0.00 0.00 0.00 90 1006.2
20260509070431 10 134 0.0 0.0 0.00 0.00 0.00 90 1006.3
20260509065926 10 134 0.0 0.0 0.00 0.00 0.00 89 1006.4
20260509065422 10 134 0.0 0.0 0.00 0.00 0.00 89 1006.4
20260509064919 10 134 0.0 0.0 0.00 0.00 0.00 90 1006.5
20260509064417 10 134 0.0 0.0 0.00 0.00 0.00 90 1006.4
20260509063914 10 134 0.0 0.0 0.00 0.00 0.00 90 1006.1
20260509063410 10 134 0.0 0.0 0.00 0.00 0.00 89 1006.2
20260509062907 10 134 0.0 0.0 0.00 0.00 0.00 89 1006.3
20260509062404 10 134 0.0 0.0 0.00 0.00 0.00 89 1006.3
20260509061902 10 134 0.0 0.0 0.00 0.00 0.00 89 1006.1
20260509061400 10 134 0.0 0.0 0.00 0.00 0.00 89 1006.2
20260509060856 10 133 0.0 0.0 0.00 0.00 0.00 89 1006.1
20260509060353 10 133 0.0 0.0 0.00 0.00 0.00 90 1006.2
20260509055848 10 133 0.0 0.0 0.00 0.00 0.00 89 1006.1
20260509055344 10 133 0.0 0.0 0.00 0.00 0.00 89 1006.7
20260509054841 10 134 0.0 0.0 0.00 0.00 0.00 90 1006.4
20260509054338 10 136 0.0 0.0 0.00 0.00 0.00 90 1006.3
20260509053836 10 133 0.0 0.0 0.00 0.00 0.00 88 1006.5
20260509053333 10 133 0.0 0.0 0.00 0.00 0.00 88 1006.7
20260509052832 10 133 0.0 0.0 0.00 0.00 0.00 88 1006.5
20260509052329 10 133 0.0 0.0 0.00 0.00 0.00 88 1006.7
20260509051826 10 133 0.0 0.0 0.00 0.00 0.00 88 1006.6
20260509051324 10 132 0.0 0.0 0.00 0.00 0.00 87 1006.6
20260509050820 10 132 0.0 0.0 0.00 0.00 0.00 86 1006.5
20260509050317 10 133 0.0 0.0 0.00 0.00 0.00 85 1006.7
20260509045814 10 132 0.0 0.0 0.00 0.00 0.00 85 1006.7
20260509045311 10 132 0.0 0.0 0.00 0.00 0.00 84 1006.4
20260509044808 11 132 0.0 0.0 0.00 0.00 0.00 84 1006.3
20260509044306 11 132 0.0 0.0 0.00 0.00 0.00 83 1006.5
20260509043802 11 132 0.0 0.0 0.00 0.00 0.00 83 1006.5
20260509043258 11 132 0.0 0.0 0.00 0.00 0.00 84 1006.6
20260509042754 11 133 0.0 0.0 0.00 0.00 0.00 83 1006.4
20260509042251 11 133 0.0 0.0 0.00 0.00 0.00 83 1006.3
20260509041748 11 133 0.0 0.0 0.00 0.00 0.00 83 1006.3
20260509041245 11 133 0.0 0.0 0.00 0.00 0.00 83 1006.6
20260509040743 11 133 0.0 0.0 0.00 0.00 0.00 83 1006.7
20260509040240 11 132 0.0 0.0 0.00 0.00 0.00 82 1006.7
20260509035736 11 133 0.0 0.0 0.00 0.00 0.00 82 1006.8
20260509035233 12 135 0.0 0.0 0.00 0.00 0.00 82 1006.7
20260509034730 12 135 0.0 0.0 0.00 0.00 0.00 82 1006.8
20260509034228 12 134 0.0 0.0 0.00 0.00 0.00 82 1006.9
20260509033725 12 131 0.0 0.0 0.00 0.00 0.00 82 1007.0
20260509033222 12 130 0.0 0.0 0.00 0.00 0.00 81 1006.9
20260509032719 12 130 0.0 0.0 0.00 0.00 0.00 81 1006.9
20260509032216 12 129 0.0 0.0 0.00 0.00 0.00 81 1007.1
20260509031713 12 135 0.0 0.0 0.00 0.00 0.00 81 1007.1
20260509031211 12 132 0.0 0.0 0.00 0.00 0.00 81 1007.1
20260509030709 12 133 0.0 0.0 0.00 0.00 0.00 81 1007.1
20260509030206 12 131 0.0 0.0 0.00 0.00 0.00 80 1007.3
20260509025702 12 129 0.0 1.6 0.00 0.00 0.00 80 1007.3
20260509025158 12 133 1.6 1.6 0.00 0.00 0.00 80 1007.2
20260509024653 12 134 3.2 3.2 0.00 0.00 0.00 80 1007.3
20260509024149 12 145 1.6 3.2 0.00 0.00 0.00 80 1007.5
20260509023648 12 129 3.2 3.2 0.00 0.00 0.00 80 1007.1
20260509023144 12 142 3.2 4.8 0.00 0.00 0.00 80 1007.3
20260509022640 12 137 3.2 4.8 0.00 0.00 0.00 80 1007.5
20260509022138 12 145 4.8 4.8 0.00 0.00 0.00 81 1007.5
20260509021635 12 128 1.6 3.2 0.00 0.00 0.00 79 1007.3
20260509021132 12 134 1.6 3.2 0.00 0.00 0.00 78 1007.4
20260509020630 12 135 1.6 1.6 0.00 0.00 0.00 77 1007.4
20260509020127 12 132 1.6 3.2 0.00 0.00 0.00 77 1007.5
20260509015626 12 132 1.6 1.6 0.00 0.00 0.00 76 1007.5
20260509015123 13 132 0.0 1.6 0.00 0.00 0.00 74 1007.5
20260509014619 13 132 1.6 1.6 0.00 0.00 0.00 73 1007.3
20260509014116 13 131 1.6 1.6 0.00 0.00 0.00 73 1007.4
20260509013613 13 132 1.6 1.6 0.00 0.00 0.00 72 1007.2
20260509013108 13 131 1.6 1.6 0.00 0.00 0.00 70 1007.0
20260509012605 13 132 1.6 1.6 0.00 0.00 0.00 69 1007.1
20260509012102 14 132 1.6 1.6 0.00 0.00 0.00 68 1006.9
20260509011600 14 132 1.6 1.6 0.00 0.00 0.00 67 1007.2
20260509011057 14 132 1.6 1.6 0.00 0.00 0.00 67 1006.8
20260509010555 15 132 1.6 1.6 0.00 0.00 0.00 67 1007.1
20260509010051 15 132 1.6 1.6 0.00 0.00 0.00 67 1006.9
20260509005549 15 131 1.6 1.6 0.00 0.00 0.00 67 1007.3
20260509005044 15 130 1.6 3.2 0.00 0.00 0.00 65 1006.9
20260509004541 15 132 1.6 1.6 0.00 0.00 0.00 65 1007.1
20260509004038 15 136 1.6 3.2 0.00 0.00 0.00 64 1007.2
20260509003536 15 135 1.6 1.6 0.00 0.00 0.00 64 1007.3
20260509003033 16 130 1.6 1.6 0.00 0.00 0.00 62 1007.1
20260509002531 16 129 1.6 1.6 0.00 0.00 0.00 57 1007.0
20260509002028 16 129 0.0 1.6 0.00 0.00 0.00 57 1007.2
20260509001525 16 129 0.0 0.0 0.00 0.00 0.00 57 1007.2
20260509001021 17 129 0.0 0.0 0.00 0.00 0.00 54 1007.2
20260509000520 17 123 0.0 0.0 0.00 0.00 0.00 56 1007.3
20260509000015 17 130 0.0 0.0 0.00 0.00 0.00 52 1007.1
20260508235514 18 132 1.6 1.6 0.00 0.00 0.00 51 1007.0
20260508235009 18 135 3.2 3.2 0.00 0.00 0.00 48 1007.2
20260508234507 18 138 3.2 3.2 0.00 0.00 0.00 44 1007.3
20260508234004 18 128 1.6 1.6 0.00 0.00 0.00 44 1007.2
20260508233503 19 129 0.0 0.0 0.00 0.00 0.00 45 1007.2
20260508233000 19 127 0.0 0.0 0.00 0.00 0.00 41 1007.1
20260508232457 20 136 4.8 4.8 0.00 0.00 0.00 41 1006.8
20260508231954 20 139 4.8 4.8 0.00 0.00 0.00 43 1006.7
20260508231451 20 131 4.8 8.0 0.00 0.00 0.00 39 1006.8
20260508230948 20 135 6.4 9.7 0.00 0.00 0.00 39 1006.9
20260508230444 20 136 8.0 9.7 0.00 0.00 0.00 39 1007.0
20260508225941 20 142 4.8 4.8 0.00 0.00 0.00 39 1007.1
20260508225438 20 126 8.0 12.9 0.00 0.00 0.00 39 1007.2
20260508224936 20 66 9.7 12.9 0.00 0.00 0.00 38 1007.4
20260508224433 21 104 8.0 9.7 0.00 0.00 0.00 38 1007.2
20260508223930 21 136 6.4 8.0 0.00 0.00 0.00 39 1007.5
20260508223428 21 133 6.4 11.3 0.00 0.00 0.00 40 1007.1
20260508222925 21 95 6.4 8.0 0.00 0.00 0.00 39 1007.3
20260508222423 21 139 1.6 3.2 0.00 0.00 0.00 38 1007.1
20260508221919 21 138 0.0 1.6 0.00 0.00 0.00 37 1007.1
20260508221415 21 146 6.4 8.0 0.00 0.00 0.00 41 1007.3
20260508220911 21 127 4.8 8.0 0.00 0.00 0.00 36 1007.1
20260508220408 21 114 6.4 8.0 0.00 0.00 0.00 37 1007.1
20260508215904 21 141 11.3 12.9 0.00 0.00 0.00 36 1007.0
20260508215401 21 151 6.4 8.0 0.00 0.00 0.00 36 1007.2
20260508214858 21 118 9.7 11.3 0.00 0.00 0.00 35 1007.3
20260508214355 21 137 0.0 0.0 0.00 0.00 0.00 39 1007.2
20260508213851 21 142 4.8 4.8 0.00 0.00 0.00 38 1007.1
20260508213349 22 137 9.7 11.3 0.00 0.00 0.00 36 1007.1
20260508212844 21 137 4.8 4.8 0.00 0.00 0.00 37 1007.3
20260508212341 22 138 8.0 11.3 0.00 0.00 0.00 39 1007.1
20260508211837 21 102 8.0 9.7 0.00 0.00 0.00 36 1007.2
20260508211332 21 125 11.3 12.9 0.00 0.00 0.00 37 1007.3
20260508210830 21 147 14.5 16.1 0.00 0.00 0.00 37 1007.4
20260508210327 21 136 8.0 9.7 0.00 0.00 0.00 38 1007.1
20260508205824 21 147 12.9 14.5 0.00 0.00 0.00 36 1007.4
20260508205320 21 121 8.0 11.3 0.00 0.00 0.00 35 1007.2
20260508204816 21 134 4.8 4.8 0.00 0.00 0.00 37 1007.7
20260508204314 21 125 16.1 22.5 0.00 0.00 0.00 35 1007.4
20260508203810 21 95 12.9 16.1 0.00 0.00 0.00 37 1007.9
20260508203306 21 128 6.4 8.0 0.00 0.00 0.00 42 1007.8
20260508202801 21 155 14.5 16.1 0.00 0.00 0.00 41 1007.6
20260508202259 21 121 9.7 12.9 0.00 0.00 0.00 40 1007.5
20260508201756 21 125 4.8 8.0 0.00 0.00 0.00 39 1007.7
20260508201253 21 139 6.4 9.7 0.00 0.00 0.00 38 1008.0
20260508200749 21 170 4.8 4.8 0.00 0.00 0.00 39 1007.7
20260508200246 21 123 11.3 16.1 0.00 0.00 0.00 42 1007.7
20260508195742 21 128 8.0 9.7 0.00 0.00 0.00 43 1007.6
20260508195239 21 134 4.8 4.8 0.00 0.00 0.00 42 1007.8
20260508194735 21 126 12.9 14.5 0.00 0.00 0.00 39 1008.3
20260508194232 21 133 8.0 9.7 0.00 0.00 0.00 40 1008.2
20260508193730 21 125 12.9 20.9 0.00 0.00 0.00 39 1008.3
20260508193226 21 126 9.7 11.3 0.00 0.00 0.00 43 1008.6
20260508192722 21 114 3.2 3.2 0.00 0.00 0.00 40 1008.9
20260508192220 21 135 8.0 11.3 0.00 0.00 0.00 43 1008.7
20260508191717 21 128 4.8 8.0 0.00 0.00 0.00 40 1008.7
20260508191214 21 241 6.4 9.7 0.00 0.00 0.00 44 1009.0
20260508190711 21 112 1.6 1.6 0.00 0.00 0.00 43 1009.1
20260508190207 21 126 6.4 8.0 0.00 0.00 0.00 40 1009.1
20260508185704 21 142 8.0 11.3 0.00 0.00 0.00 42 1009.3
20260508185201 21 108 6.4 8.0 0.00 0.00 0.00 41 1009.4
20260508184658 21 139 3.2 4.8 0.00 0.00 0.00 46 1009.4
20260508184155 21 116 1.6 1.6 0.00 0.00 0.00 41 1009.5
20260508183652 21 104 8.0 9.7 0.00 0.00 0.00 41 1009.8
20260508183148 20 121 8.0 11.3 0.00 0.00 0.00 40 1009.5
20260508182644 20 108 12.9 16.1 0.00 0.00 0.00 40 1009.9
20260508182141 21 71 4.8 8.0 0.00 0.00 0.00 41 1009.8
20260508181636 20 158 1.6 3.2 0.00 0.00 0.00 41 1010.0
20260508181134 20 110 8.0 11.3 0.00 0.00 0.00 40 1010.1
20260508180631 20 152 4.8 4.8 0.00 0.00 0.00 44 1010.2
20260508180127 20 135 9.7 12.9 0.00 0.00 0.00 45 1010.1
20260508175624 20 128 1.6 3.2 0.00 0.00 0.00 47 1010.5
20260508175121 20 128 3.2 4.8 0.00 0.00 0.00 40 1010.3
20260508174618 20 130 12.9 14.5 0.00 0.00 0.00 45 1010.6
20260508174115 21 207 6.4 8.0 0.00 0.00 0.00 49 1010.5
20260508173612 20 141 6.4 8.0 0.00 0.00 0.00 43 1010.7
20260508173108 21 145 3.2 3.2 0.00 0.00 0.00 47 1010.6
20260508172606 20 277 9.7 12.9 0.00 0.00 0.00 48 1010.8
20260508172102 20 244 4.8 4.8 0.00 0.00 0.00 42 1010.8
20260508171558 20 120 9.7 12.9 0.00 0.00 0.00 42 1011.2
20260508171055 20 114 4.8 4.8 0.00 0.00 0.00 44 1010.9
20260508170552 20 122 11.3 16.1 0.00 0.00 0.00 46 1011.2
20260508170049 20 159 3.2 3.2 0.00 0.00 0.00 45 1011.1
20260508165547 20 125 3.2 3.2 0.00 0.00 0.00 40 1011.4
20260508165043 19 189 9.7 12.9 0.00 0.00 0.00 48 1011.4
20260508164540 19 117 4.8 9.7 0.00 0.00 0.00 42 1011.6
20260508164037 19 91 4.8 8.0 0.00 0.00 0.00 41 1011.6
20260508163534 18 164 4.8 8.0 0.00 0.00 0.00 47 1011.7
20260508163031 19 114 14.5 17.7 0.00 0.00 0.00 42 1011.8
20260508162528 18 224 6.4 8.0 0.00 0.00 0.00 42 1011.7
20260508162025 18 177 6.4 9.7 0.00 0.00 0.00 48 1012.0
20260508161522 18 134 0.0 0.0 0.00 0.00 0.00 48 1012.0
20260508161019 18 145 6.4 8.0 0.00 0.00 0.00 47 1012.2
20260508160517 18 127 16.1 20.9 0.00 0.00 0.00 45 1012.2
20260508160014 18 118 0.0 0.0 0.00 0.00 0.00 47 1012.4
20260508155511 18 128 1.6 1.6 0.00 0.00 0.00 47 1012.4
20260508155008 18 126 6.4 9.7 0.00 0.00 0.00 46 1012.4
20260508154505 18 110 9.7 11.3 0.00 0.00 0.00 50 1012.6